Dewpoint
74 74 74 74 74 74 74 74 74 73 74 73 73 73 73 73 74 74 74 74 73 73 73 74 74 74 72 72 72 72 71 73 73 74 74 73 72 69 68 69 69 69
74 75 75 75 74 74 74 74 73 73 73 73 73 73 74 74 74 74 74 74 74 73 74 74 74 74 74 73 73 71 70 71 71 72 72 71 70 69 69 69 69 69
71 71 71 71 71 72 73 73 73 73 73 73 73 73 73 74 74 74 74 74 74 73 74 74 74 74 75 74 74 71 70 70 71 72 73 71 70 69 69 68 68 68
70 70 69 69 70 70 71 71 71 72 72 72 72 72 73 73 74 74 74 74 74 74 73 74 73 73 73 73 75 72 71 70 71 72 72 71 70 69 69 69 69 68
69 69 69 70 70 70 71 71 70 71 71 71 71 72 74 74 74 74 74 73 73 73 73 73 73 73 74 74 75 73 72 71 71 71 71 70 71 70 69 69 69 68
69 69 70 70 70 70 70 70 70 70 70 71 71 72 73 73 73 73 73 73 73 73 73 73 72 73 73 73 75 74 73 72 71 71 71 70 70 70 69 69 70 69
68 68 68 69 69 69 70 69 70 71 71 71 72 72 73 73 72 72 73 73 73 73 73 73 73 73 73 74 73 73 72 72 71 71 71 70 71 70 70 70 70 70
67 68 68 68 68 69 69 69 70 70 71 72 72 72 72 71 72 72 73 73 73 73 73 73 73 74 74 74 74 74 73 72 71 71 71 71 71 71 71 71 70 70
67 67 67 68 68 68 68 68 69 70 71 71 71 71 72 72 72 72 72 73 73 73 73 73 73 73 74 73 73 73 73 72 72 71 71 71 71 71 71 71 70 71
67 67 67 67 67 67 67 68 68 69 70 70 70 71 70 71 71 71 72 73 73 73 73 73 73 73 73 73 73 72 72 72 72 72 72 71 71 71 71 71 70 70
67 67 67 67 66 67 67 68 68 69 70 70 70 70 70 70 71 72 72 72 72 72 72 72 72 73 72 72 73 73 72 72 72 72 72 72 72 71 72 71 71 70
66 66 66 66 66 66 67 67 68 69 69 69 69 69 70 70 70 71 71 71 71 72 72 72 72 72 72 72 72 72 72 72 72 72 72 72 72 72 71 71 71 71
65 65 65 65 66 66 67 68 68 68 68 68 69 69 70 70 70 71 71 71 71 72 72 72 71 71 72 71 72 72 72 72 72 72 72 72 72 72 72 71 71 71
64 65 65 65 66 67 67 67 68 68 68 69 69 70 70 70 70 70 70 71 71 71 71 71 71 71 71 71 71 72 72 72 72 72 72 72 72 72 72 71 71 71
65 65 65 66 67 67 67 67 67 67 68 68 69 69 70 70 70 70 70 70 71 71 71 71 70 70 70 71 71 71 71 71 71 71 71 71 71 71 72 72 71 71
64 65 65 66 66 66 66 66 66 67 67 68 68 69 69 70 70 70 70 70 70 70 70 70 70 70 70 71 72 71 71 71 71 71 71 71 71 71 71 71 71 71
64 64 65 65 65 66 66 66 66 67 67 67 68 68 68 69 70 70 70 70 69 69 69 69 69 69 70 66 66 67 71 71 71 71 71 71 71 71 70 71 71 71
64 65 65 65 65 65 66 66 66 67 67 67 68 68 68 69 69 69 69 69 68 68 68 68 68 69 65 65 66 66 68 69 70 70 70 70 71 71 70 71 71 71
64 64 64 64 65 65 66 66 66 66 67 67 67 68 68 68 68 68 67 68 67 67 67 67 67 66 64 64 64 65 65 69 69 69 69 70 70 70 70 71 71 71
64 64 65 65 66 66 66 66 66 66 67 67 67 68 67 67 67 67 67 67 67 67 67 67 67 66 64 63 63 63 64 65 68 68 69 69 69 70 70 71 71 71
64 65 65 65 66 66 66 66 66 66 67 67 67 67 67 67 67 67 67 68 67 67 67 67 67 65 63 63 62 62 63 65 67 68 69 69 70 70 70 71 71 71
65 65 65 65 65 66 66 66 66 66 66 66 67 67 67 67 67 67 67 67 67 67 67 67 67 64 63 62 62 62 63 67 68 68 68 69 69 70 70 71 71 71
65 65 65 65 66 66 66 66 66 66 66 67 67 67 67 67 67 67 67 67 67 67 67 67 67 65 62 61 61 61 63 67 67 68 68 68 69 70 70 71 71 72
65 65 65 66 65 65 66 66 66 66 66 67 66 66 66 66 67 67 67 67 67 67 67 67 67 66 62 61 60 60 64 67 68 68 68 68 69 70 70 71 71 71
65 65 65 65 65 66 66 66 66 66 66 67 67 67 67 67 67 67 67 67 67 67 68 68 67 66 62 61 60 60 63 66 67 67 67 68 69 69 70 70 71 72
65 66 66 66 66 66 66 66 66 66 66 66 67 67 67 67 67 67 67 67 67 67 67 67 67 67 67 62 60 59 60 66 68 67 67 68 68 69 69 69 70 71